Year,Month,Day,Hour,Minute,Value (Times are PST for temperature in C)
2009,05,21,00,00,7.20
2009,05,21,00,01,7.20
2009,05,21,00,02,7.20
2009,05,21,00,03,7.20
2009,05,21,00,04,7.20
2009,05,21,00,05,7.20
2009,05,21,00,06,7.20
2009,05,21,00,07,7.20
2009,05,21,00,08,7.20
2009,05,21,00,09,7.20
2009,05,21,00,10,7.20
2009,05,21,00,11,7.20
2009,05,21,00,12,7.20
2009,05,21,00,13,7.20
2009,05,21,00,14,7.20
2009,05,21,00,15,7.20
2009,05,21,00,16,7.20
2009,05,21,00,17,7.20
2009,05,21,00,18,7.20
2009,05,21,00,19,7.30
2009,05,21,00,20,7.30
2009,05,21,00,21,7.30
2009,05,21,00,22,7.30
2009,05,21,00,23,7.30
2009,05,21,00,24,7.30
2009,05,21,00,25,7.40
2009,05,21,00,26,7.40
2009,05,21,00,27,7.40
2009,05,21,00,28,7.40
2009,05,21,00,29,7.40
2009,05,21,00,30,7.40
2009,05,21,00,31,7.30
2009,05,21,00,32,7.30
2009,05,21,00,33,7.30
2009,05,21,00,34,7.30
2009,05,21,00,35,7.30
2009,05,21,00,36,7.30
2009,05,21,00,37,7.30
2009,05,21,00,38,7.30
2009,05,21,00,39,7.30
2009,05,21,00,40,7.30
2009,05,21,00,41,7.30
2009,05,21,00,42,7.30
2009,05,21,00,43,7.30
2009,05,21,00,44,7.30
2009,05,21,00,45,7.30
2009,05,21,00,46,7.30
2009,05,21,00,47,7.20
2009,05,21,00,48,7.20
2009,05,21,00,49,7.20
2009,05,21,00,50,7.20
2009,05,21,00,51,7.20
2009,05,21,00,52,7.20
2009,05,21,00,53,7.20
2009,05,21,00,54,7.20
2009,05,21,00,55,7.20
2009,05,21,00,56,7.20
2009,05,21,00,57,7.20
2009,05,21,00,58,7.20
2009,05,21,00,59,7.20
2009,05,21,01,00,7.20
2009,05,21,01,01,7.20
2009,05,21,01,02,7.20
2009,05,21,01,03,7.20
2009,05,21,01,04,7.20
2009,05,21,01,05,7.20
2009,05,21,01,06,7.20
2009,05,21,01,07,7.20
2009,05,21,01,08,7.20
2009,05,21,01,09,7.10
2009,05,21,01,10,7.10
2009,05,21,01,11,7.10
2009,05,21,01,12,7.10
2009,05,21,01,13,7.10
2009,05,21,01,14,7.10
2009,05,21,01,15,7.10
2009,05,21,01,16,7.10
2009,05,21,01,17,7.10
2009,05,21,01,18,7.10
2009,05,21,01,19,7.10
2009,05,21,01,20,7.10
2009,05,21,01,21,7.10
2009,05,21,01,22,7.10
2009,05,21,01,23,7.10
2009,05,21,01,24,7.10
2009,05,21,01,25,7.10
2009,05,21,01,26,7.00
2009,05,21,01,27,7.00
2009,05,21,01,28,7.00
2009,05,21,01,29,7.00
2009,05,21,01,30,7.00
2009,05,21,01,31,7.00
2009,05,21,01,32,7.00
2009,05,21,01,33,7.00
2009,05,21,01,34,7.00
2009,05,21,01,35,7.00
2009,05,21,01,36,7.00
2009,05,21,01,37,7.00
2009,05,21,01,38,6.90
2009,05,21,01,39,6.90
2009,05,21,01,40,6.90
2009,05,21,01,41,6.90
2009,05,21,01,42,6.90
2009,05,21,01,43,6.90
2009,05,21,01,44,6.80
2009,05,21,01,45,6.80
2009,05,21,01,46,6.80
2009,05,21,01,47,6.80
2009,05,21,01,48,6.80
2009,05,21,01,49,6.80
2009,05,21,01,50,6.80
2009,05,21,01,51,6.80
2009,05,21,01,52,6.80
2009,05,21,01,53,6.80
2009,05,21,01,54,6.80
2009,05,21,01,55,6.70
2009,05,21,01,56,6.70
2009,05,21,01,57,6.70
2009,05,21,01,58,6.70
2009,05,21,01,59,6.70
2009,05,21,02,00,6.70
2009,05,21,02,01,6.70
2009,05,21,02,02,6.70
2009,05,21,02,03,6.70
2009,05,21,02,04,6.70
2009,05,21,02,05,6.70
2009,05,21,02,06,6.60
2009,05,21,02,07,6.60
2009,05,21,02,08,6.60
2009,05,21,02,09,6.60
2009,05,21,02,10,6.60
2009,05,21,02,11,6.60
2009,05,21,02,12,6.60
2009,05,21,02,13,6.60
2009,05,21,02,14,6.60
2009,05,21,02,15,6.60
2009,05,21,02,16,6.60
2009,05,21,02,17,6.60
2009,05,21,02,18,6.60
2009,05,21,02,19,6.60
2009,05,21,02,20,6.60
2009,05,21,02,21,6.60
2009,05,21,02,22,6.60
2009,05,21,02,23,6.60
2009,05,21,02,24,6.60
2009,05,21,02,25,6.60
2009,05,21,02,26,6.60
2009,05,21,02,27,6.60
2009,05,21,02,28,6.60
2009,05,21,02,29,6.60
2009,05,21,02,30,6.60
2009,05,21,02,31,6.60
2009,05,21,02,32,6.60
2009,05,21,02,33,6.60
2009,05,21,02,34,6.60
2009,05,21,02,35,6.60
2009,05,21,02,36,6.60
2009,05,21,02,37,6.60
2009,05,21,02,38,6.60
2009,05,21,02,39,6.60
2009,05,21,02,40,6.60
2009,05,21,02,41,6.60
2009,05,21,02,42,6.50
2009,05,21,02,43,6.50
2009,05,21,02,44,6.50
2009,05,21,02,45,6.50
2009,05,21,02,46,6.50
2009,05,21,02,47,6.50
2009,05,21,02,48,6.50
2009,05,21,02,49,6.40
2009,05,21,02,50,6.40
2009,05,21,02,51,6.40
2009,05,21,02,52,6.40
2009,05,21,02,53,6.40
2009,05,21,02,54,6.40
2009,05,21,02,55,6.40
2009,05,21,02,56,6.40
2009,05,21,02,57,6.30
2009,05,21,02,58,6.30
2009,05,21,02,59,6.30
2009,05,21,03,00,6.30
2009,05,21,03,01,6.30
2009,05,21,03,02,6.30
2009,05,21,03,03,6.30
2009,05,21,03,04,6.30
2009,05,21,03,05,6.30
2009,05,21,03,06,6.20
2009,05,21,03,07,6.20
2009,05,21,03,08,6.20
2009,05,21,03,09,6.20
2009,05,21,03,10,6.20
2009,05,21,03,11,6.20
2009,05,21,03,12,6.20
2009,05,21,03,13,6.20
2009,05,21,03,14,6.10
2009,05,21,03,15,6.10
2009,05,21,03,16,6.10
2009,05,21,03,17,6.10
2009,05,21,03,18,6.10
2009,05,21,03,19,6.10
2009,05,21,03,20,6.00
2009,05,21,03,21,6.00
2009,05,21,03,22,6.00
2009,05,21,03,23,6.00
2009,05,21,03,24,6.00
2009,05,21,03,25,6.00
2009,05,21,03,26,5.90
2009,05,21,03,27,5.90
2009,05,21,03,28,5.90
2009,05,21,03,29,5.90
2009,05,21,03,30,5.90
2009,05,21,03,31,5.90
2009,05,21,03,32,5.90
2009,05,21,03,33,5.90
2009,05,21,03,34,5.90
2009,05,21,03,35,5.90
2009,05,21,03,36,5.90
2009,05,21,03,37,5.90
2009,05,21,03,38,5.90
2009,05,21,03,39,5.80
2009,05,21,03,40,5.80
2009,05,21,03,41,5.80
2009,05,21,03,42,5.80
2009,05,21,03,43,5.80
2009,05,21,03,44,5.80
2009,05,21,03,45,5.80
2009,05,21,03,49,5.70
2009,05,21,03,50,5.70
2009,05,21,03,51,5.70
2009,05,21,03,52,5.70
2009,05,21,03,53,5.70
2009,05,21,03,54,5.60
2009,05,21,03,55,5.60
2009,05,21,03,56,5.60
2009,05,21,03,57,5.60
2009,05,21,03,58,5.60
2009,05,21,03,59,5.50
2009,05,21,04,00,5.50
2009,05,21,04,01,5.50
2009,05,21,04,02,5.50
2009,05,21,04,03,5.50
2009,05,21,04,04,5.40
2009,05,21,04,05,5.40
2009,05,21,04,06,5.40
2009,05,21,04,07,5.40
2009,05,21,04,08,5.40
2009,05,21,04,09,5.40
2009,05,21,04,10,5.40
2009,05,21,04,11,5.40
2009,05,21,04,12,5.30
2009,05,21,04,13,5.30
2009,05,21,04,14,5.30
2009,05,21,04,15,5.30
2009,05,21,04,16,5.30
2009,05,21,04,17,5.20
2009,05,21,04,18,5.20
2009,05,21,04,19,5.20
2009,05,21,04,20,5.20
2009,05,21,04,21,5.20
2009,05,21,04,22,5.20
2009,05,21,04,23,5.10
2009,05,21,04,24,5.20
2009,05,21,04,25,5.10
2009,05,21,04,26,5.10
2009,05,21,04,27,5.10
2009,05,21,04,28,5.10
2009,05,21,04,29,5.10
2009,05,21,04,30,5.10
2009,05,21,04,31,5.10
2009,05,21,04,32,5.10
2009,05,21,04,33,5.10
2009,05,21,04,34,5.10
2009,05,21,04,35,5.00
2009,05,21,04,36,5.00
2009,05,21,04,37,5.00
2009,05,21,04,38,5.00
2009,05,21,04,39,5.00
2009,05,21,04,40,5.00
2009,05,21,04,41,5.00
2009,05,21,04,42,5.00
2009,05,21,04,43,5.00
2009,05,21,04,44,5.00
2009,05,21,04,45,5.00
2009,05,21,04,46,5.00
2009,05,21,04,47,5.00
2009,05,21,04,48,5.00
2009,05,21,04,49,5.00
2009,05,21,04,50,5.00
2009,05,21,04,51,5.00
2009,05,21,04,52,5.00
2009,05,21,04,53,4.90
2009,05,21,04,54,4.90
2009,05,21,04,55,4.90
2009,05,21,04,56,4.90
2009,05,21,04,57,4.90
2009,05,21,04,58,4.90
2009,05,21,04,59,4.90
2009,05,21,05,00,4.90
2009,05,21,05,01,4.90
2009,05,21,05,02,4.90
2009,05,21,05,03,4.90
2009,05,21,05,04,4.90
2009,05,21,05,05,4.80
2009,05,21,05,06,4.80
2009,05,21,05,07,4.80
2009,05,21,05,08,4.80
2009,05,21,05,09,4.80
2009,05,21,05,10,4.80
2009,05,21,05,11,4.80
2009,05,21,05,12,4.80
2009,05,21,05,13,4.80
2009,05,21,05,14,4.80
2009,05,21,05,15,4.80
2009,05,21,05,16,4.80
2009,05,21,05,17,4.80
2009,05,21,05,18,4.80
2009,05,21,05,19,4.80
2009,05,21,05,20,4.80
2009,05,21,05,21,4.80
2009,05,21,05,22,4.80
2009,05,21,05,23,4.80
2009,05,21,05,24,4.80
2009,05,21,05,25,4.70
2009,05,21,05,26,4.70
2009,05,21,05,27,4.70
2009,05,21,05,28,4.70
2009,05,21,05,29,4.70
2009,05,21,05,30,4.70
2009,05,21,05,31,4.70
2009,05,21,05,32,4.70
2009,05,21,05,33,4.70
2009,05,21,05,34,4.70
2009,05,21,05,35,4.70
2009,05,21,05,36,4.70
2009,05,21,05,37,4.70
2009,05,21,05,38,4.70
2009,05,21,05,39,4.70
2009,05,21,05,40,4.70
2009,05,21,05,41,4.70
2009,05,21,05,42,4.70
2009,05,21,05,43,4.70
2009,05,21,05,44,4.70
2009,05,21,05,45,4.70
2009,05,21,05,46,4.70
2009,05,21,05,47,4.70
2009,05,21,05,48,4.70
2009,05,21,05,49,4.70
2009,05,21,05,50,4.70
2009,05,21,05,51,4.70
2009,05,21,05,52,4.70
2009,05,21,05,53,4.70
2009,05,21,05,54,4.70
2009,05,21,05,55,4.70
2009,05,21,05,56,4.70
2009,05,21,05,57,4.70
2009,05,21,05,58,4.70
2009,05,21,05,59,4.70
2009,05,21,06,00,4.70
2009,05,21,06,01,4.70
2009,05,21,06,02,4.70
2009,05,21,06,03,4.70
2009,05,21,06,04,4.70
2009,05,21,06,05,4.70
2009,05,21,06,06,4.70
2009,05,21,06,07,4.70
2009,05,21,06,08,4.70
2009,05,21,06,09,4.70
2009,05,21,06,10,4.70
2009,05,21,06,11,4.70
2009,05,21,06,12,4.80
2009,05,21,06,13,4.80
2009,05,21,06,14,4.80
2009,05,21,06,15,4.80
2009,05,21,06,16,4.80
2009,05,21,06,17,4.90
2009,05,21,06,18,4.90
2009,05,21,06,19,4.90
2009,05,21,06,20,5.00
2009,05,21,06,21,5.00
2009,05,21,06,22,5.10
2009,05,21,06,23,5.10
2009,05,21,06,24,5.10
2009,05,21,06,25,5.10
2009,05,21,06,26,5.10
2009,05,21,06,27,5.10
2009,05,21,06,28,5.10
2009,05,21,06,29,5.20
2009,05,21,06,30,5.20
2009,05,21,06,31,5.20
2009,05,21,06,32,5.20
2009,05,21,06,33,5.30
2009,05,21,06,34,5.30
2009,05,21,06,35,5.30
2009,05,21,06,36,5.40
2009,05,21,06,37,5.40
2009,05,21,06,38,5.50
2009,05,21,06,39,5.50
2009,05,21,06,40,5.60
2009,05,21,06,41,5.60
2009,05,21,06,42,5.70
2009,05,21,06,43,5.80
2009,05,21,06,44,5.80
2009,05,21,06,45,5.90
2009,05,21,06,46,5.90
2009,05,21,06,47,5.90
2009,05,21,06,48,5.90
2009,05,21,06,49,6.00
2009,05,21,06,50,6.00
2009,05,21,06,51,6.00
2009,05,21,06,52,6.00
2009,05,21,06,53,6.00
2009,05,21,06,54,6.00
2009,05,21,06,55,6.10
2009,05,21,06,56,6.10
2009,05,21,06,57,6.20
2009,05,21,06,58,6.30
2009,05,21,06,59,6.30
2009,05,21,07,00,6.40
2009,05,21,07,01,6.40
2009,05,21,07,02,6.50
2009,05,21,07,03,6.50
2009,05,21,07,04,6.60
2009,05,21,07,05,6.60
2009,05,21,07,06,6.70
2009,05,21,07,07,6.70
2009,05,21,07,08,6.80
2009,05,21,07,09,6.80
2009,05,21,07,10,6.90
2009,05,21,07,11,6.90
2009,05,21,07,12,7.00
2009,05,21,07,13,7.10
2009,05,21,07,14,7.10
2009,05,21,07,15,7.10
2009,05,21,07,16,7.20
2009,05,21,07,17,7.20
2009,05,21,07,18,7.20
2009,05,21,07,19,7.30
2009,05,21,07,20,7.40
2009,05,21,07,21,7.40
2009,05,21,07,22,7.50
2009,05,21,07,23,7.60
2009,05,21,07,24,7.70
2009,05,21,07,25,7.80
2009,05,21,07,26,7.80
2009,05,21,07,27,7.90
2009,05,21,07,28,8.00
2009,05,21,07,29,8.10
2009,05,21,07,30,8.20
2009,05,21,07,31,8.30
2009,05,21,07,32,8.40
2009,05,21,07,33,8.50
2009,05,21,07,34,8.60
2009,05,21,07,35,8.70
2009,05,21,07,36,8.80
2009,05,21,07,37,8.90
2009,05,21,07,38,9.00
2009,05,21,07,39,9.10
2009,05,21,07,40,9.30
2009,05,21,07,41,9.40
2009,05,21,07,42,9.50
2009,05,21,07,43,9.60
2009,05,21,07,44,9.70
2009,05,21,07,45,9.80
2009,05,21,07,46,9.90
2009,05,21,07,47,10.00
2009,05,21,07,48,10.10
2009,05,21,07,49,10.20
2009,05,21,07,50,10.30
2009,05,21,07,51,10.40
2009,05,21,07,52,10.50
2009,05,21,07,53,10.60
2009,05,21,07,54,10.60
2009,05,21,07,55,10.70
2009,05,21,07,56,10.80
2009,05,21,07,57,10.90
2009,05,21,07,58,11.00
2009,05,21,07,59,11.10
2009,05,21,08,00,11.20
2009,05,21,08,01,11.20
2009,05,21,08,02,11.30
2009,05,21,08,03,11.30
2009,05,21,08,04,11.40
2009,05,21,08,05,11.40
2009,05,21,08,06,11.40
2009,05,21,08,07,11.40
2009,05,21,08,08,11.50
2009,05,21,08,09,11.50
2009,05,21,08,10,11.50
2009,05,21,08,11,11.50
2009,05,21,08,12,11.50
2009,05,21,08,13,11.60
2009,05,21,08,14,11.60
2009,05,21,08,15,11.70
2009,05,21,08,16,11.70
2009,05,21,08,17,11.70
2009,05,21,08,18,11.70
2009,05,21,08,19,11.70
2009,05,21,08,20,11.60
2009,05,21,08,21,11.60
2009,05,21,08,22,11.70
2009,05,21,08,23,11.70
2009,05,21,08,24,11.70
2009,05,21,08,25,11.70
2009,05,21,08,26,11.80
2009,05,21,08,27,11.80
2009,05,21,08,28,11.90
2009,05,21,08,29,11.90
2009,05,21,08,30,12.00
2009,05,21,08,31,12.00
2009,05,21,08,32,11.90
2009,05,21,08,33,11.90
2009,05,21,08,34,12.00
2009,05,21,08,35,12.10
2009,05,21,08,36,12.20
2009,05,21,08,37,12.30
2009,05,21,08,38,12.40
2009,05,21,08,39,12.50
2009,05,21,08,40,12.60
2009,05,21,08,41,12.70
2009,05,21,08,42,12.70
2009,05,21,08,43,12.80
2009,05,21,08,44,12.80
2009,05,21,08,45,12.90
2009,05,21,08,46,12.90
2009,05,21,08,47,13.00
2009,05,21,08,48,13.10
2009,05,21,08,49,13.20
2009,05,21,08,50,13.30
2009,05,21,08,51,13.30
2009,05,21,08,52,13.40
2009,05,21,08,53,13.40
2009,05,21,08,54,13.50
2009,05,21,08,55,13.50
2009,05,21,08,56,13.60
2009,05,21,08,57,13.60
2009,05,21,08,58,13.60
2009,05,21,08,59,13.50
2009,05,21,09,00,13.40
2009,05,21,09,01,13.40
2009,05,21,09,02,13.30
2009,05,21,09,03,13.30
2009,05,21,09,04,13.20
2009,05,21,09,05,13.20
2009,05,21,09,06,13.10
2009,05,21,09,07,13.10
2009,05,21,09,08,13.20
2009,05,21,09,09,13.20
2009,05,21,09,10,13.30
2009,05,21,09,11,13.30
2009,05,21,09,12,13.30
2009,05,21,09,13,13.20
2009,05,21,09,14,13.20
2009,05,21,09,15,13.20
2009,05,21,09,16,13.30
2009,05,21,09,17,13.30
2009,05,21,09,18,13.30
2009,05,21,09,19,13.40
2009,05,21,09,20,13.40
2009,05,21,09,21,13.50
2009,05,21,09,22,13.60
2009,05,21,09,23,13.70
2009,05,21,09,24,13.70
2009,05,21,09,25,13.70
2009,05,21,09,26,13.70
2009,05,21,09,27,13.70
2009,05,21,09,28,13.70
2009,05,21,09,29,13.70
2009,05,21,09,30,13.60
2009,05,21,09,31,13.60
2009,05,21,09,32,13.60
2009,05,21,09,33,13.50
2009,05,21,09,34,13.40
2009,05,21,09,35,13.30
2009,05,21,09,36,13.20
2009,05,21,09,37,13.10
2009,05,21,09,38,13.00
2009,05,21,09,39,13.00
2009,05,21,09,40,13.00
2009,05,21,09,41,13.10
2009,05,21,09,42,13.00
2009,05,21,09,43,13.00
2009,05,21,09,44,13.00
2009,05,21,09,45,13.00
2009,05,21,09,46,13.10
2009,05,21,09,47,13.20
2009,05,21,09,48,13.30
2009,05,21,09,49,13.40
2009,05,21,09,50,13.50
2009,05,21,09,51,13.60
2009,05,21,09,52,13.60
2009,05,21,09,53,13.60
2009,05,21,09,54,13.50
2009,05,21,09,55,13.40
2009,05,21,09,56,13.30
2009,05,21,09,57,13.30
2009,05,21,09,58,13.10
2009,05,21,09,59,13.10
2009,05,21,10,00,13.20
2009,05,21,10,01,13.30
2009,05,21,10,02,13.40
2009,05,21,10,03,13.50
2009,05,21,10,04,13.60
2009,05,21,10,05,13.70
2009,05,21,10,06,13.70
2009,05,21,10,07,13.80
2009,05,21,10,08,13.80
2009,05,21,10,09,13.80
2009,05,21,10,10,13.80
2009,05,21,10,11,13.90
2009,05,21,10,12,13.90
2009,05,21,10,13,13.90
2009,05,21,10,14,13.90
2009,05,21,10,15,13.80
2009,05,21,10,16,13.70
2009,05,21,10,17,13.50
2009,05,21,10,18,13.20
2009,05,21,10,19,13.10
2009,05,21,10,20,12.90
2009,05,21,10,21,12.90
2009,05,21,10,22,12.90
2009,05,21,10,23,12.90
2009,05,21,10,24,12.80
2009,05,21,10,25,12.80
2009,05,21,10,26,12.90
2009,05,21,10,27,13.00
2009,05,21,10,28,13.10
2009,05,21,10,29,13.10
2009,05,21,10,30,13.20
2009,05,21,10,31,13.30
2009,05,21,10,32,13.50
2009,05,21,10,33,13.70
2009,05,21,10,34,13.80
2009,05,21,10,35,13.90
2009,05,21,10,36,13.90
2009,05,21,10,37,13.90
2009,05,21,10,38,13.90
2009,05,21,10,39,13.90
2009,05,21,10,40,14.00
2009,05,21,10,41,14.10
2009,05,21,10,42,14.20
2009,05,21,10,43,14.20
2009,05,21,10,44,14.20
2009,05,21,10,45,14.20
2009,05,21,10,46,14.20
2009,05,21,10,47,14.30
2009,05,21,10,48,14.30
2009,05,21,10,49,14.30
2009,05,21,10,50,14.40
2009,05,21,10,51,14.40
2009,05,21,10,52,14.40
2009,05,21,10,53,14.40
2009,05,21,10,54,14.50
2009,05,21,10,55,14.60
2009,05,21,10,56,14.70
2009,05,21,10,57,14.70
2009,05,21,10,58,14.60
2009,05,21,10,59,14.50
2009,05,21,11,00,14.40
2009,05,21,11,01,14.40
2009,05,21,11,02,14.40
2009,05,21,11,03,14.50
2009,05,21,11,04,14.60
2009,05,21,11,05,14.70
2009,05,21,11,06,14.80
2009,05,21,11,07,14.80
2009,05,21,11,08,14.80
2009,05,21,11,09,14.70
2009,05,21,11,10,14.50
2009,05,21,11,11,14.40
2009,05,21,11,12,14.30
2009,05,21,11,13,14.30
2009,05,21,11,14,14.40
2009,05,21,11,15,14.40
2009,05,21,11,16,14.40
2009,05,21,11,17,14.40
2009,05,21,11,18,14.40
2009,05,21,11,19,14.50
2009,05,21,11,20,14.50
2009,05,21,11,21,14.40
2009,05,21,11,22,14.40
2009,05,21,11,23,14.30
2009,05,21,11,24,14.30
2009,05,21,11,25,14.30
2009,05,21,11,26,14.40
2009,05,21,11,27,14.40
2009,05,21,11,28,14.50
2009,05,21,11,29,14.50
2009,05,21,11,30,14.40
2009,05,21,11,31,14.30
2009,05,21,11,32,14.30
2009,05,21,11,33,14.40
2009,05,21,11,34,14.50
2009,05,21,11,35,14.60
2009,05,21,11,36,14.80
2009,05,21,11,37,15.00
2009,05,21,11,38,15.00
2009,05,21,11,39,15.00
2009,05,21,11,40,14.90
2009,05,21,11,41,14.90
2009,05,21,11,42,15.00
2009,05,21,11,43,15.00
2009,05,21,11,44,15.00
2009,05,21,11,45,15.10
2009,05,21,11,46,15.00
2009,05,21,11,47,15.00
2009,05,21,11,48,15.00
2009,05,21,11,49,15.00
2009,05,21,11,50,15.00
2009,05,21,11,51,14.90
2009,05,21,11,52,15.00
2009,05,21,11,53,14.90
2009,05,21,11,54,15.00
2009,05,21,11,55,15.00
2009,05,21,11,56,15.00
2009,05,21,11,57,15.20
2009,05,21,11,58,15.20
2009,05,21,11,59,15.20
2009,05,21,12,00,15.30
2009,05,21,12,01,15.30
2009,05,21,12,02,15.10
2009,05,21,12,03,15.00
2009,05,21,12,04,15.00
2009,05,21,12,05,15.00
2009,05,21,12,06,15.00
2009,05,21,12,07,15.00
2009,05,21,12,08,15.10
2009,05,21,12,09,15.20
2009,05,21,12,10,15.30
2009,05,21,12,11,15.40
2009,05,21,12,12,15.50
2009,05,21,12,13,15.50
2009,05,21,12,14,15.50
2009,05,21,12,15,15.50
2009,05,21,12,16,15.40
2009,05,21,12,17,15.50
2009,05,21,12,18,15.50
2009,05,21,12,19,15.40
2009,05,21,12,20,15.50
2009,05,21,12,21,15.70
2009,05,21,12,22,15.70
2009,05,21,12,23,15.60
2009,05,21,12,24,15.60
2009,05,21,12,25,15.60
2009,05,21,12,26,15.60
2009,05,21,12,27,15.50
2009,05,21,12,28,15.50
2009,05,21,12,29,15.50
2009,05,21,12,30,15.60
2009,05,21,12,31,15.70
2009,05,21,12,32,15.80
2009,05,21,12,33,15.90
2009,05,21,12,34,16.00
2009,05,21,12,35,16.10
2009,05,21,12,36,16.20
2009,05,21,12,37,16.30
2009,05,21,12,38,16.40
2009,05,21,12,39,16.40
2009,05,21,12,40,16.40
2009,05,21,12,41,16.30
2009,05,21,12,42,16.10
2009,05,21,12,43,15.90
2009,05,21,12,44,15.70
2009,05,21,12,45,15.50
2009,05,21,12,46,15.30
2009,05,21,12,47,15.40
2009,05,21,12,48,15.40
2009,05,21,12,49,15.50
2009,05,21,12,50,15.50
2009,05,21,12,51,15.60
2009,05,21,12,52,15.70
2009,05,21,12,53,15.80
2009,05,21,12,54,15.70
2009,05,21,12,55,15.60
2009,05,21,12,56,15.40
2009,05,21,12,57,15.40
2009,05,21,12,58,15.50
2009,05,21,12,59,15.70
2009,05,21,13,00,15.70
2009,05,21,13,01,15.70
2009,05,21,13,02,15.80
2009,05,21,13,03,15.80
2009,05,21,13,04,15.80
2009,05,21,13,05,15.80
2009,05,21,13,06,15.90
2009,05,21,13,07,15.90
2009,05,21,13,08,16.00
2009,05,21,13,09,16.10
2009,05,21,13,10,16.10
2009,05,21,13,11,16.10
2009,05,21,13,12,15.90
2009,05,21,13,13,15.70
2009,05,21,13,14,15.70
2009,05,21,13,15,15.90
2009,05,21,13,16,16.00
2009,05,21,13,17,16.20
2009,05,21,13,18,16.30
2009,05,21,13,19,16.30
2009,05,21,13,20,16.30
2009,05,21,13,21,16.20
2009,05,21,13,22,16.10
2009,05,21,13,23,16.00
2009,05,21,13,24,15.90
2009,05,21,13,25,15.80
2009,05,21,13,26,15.80
2009,05,21,13,27,15.80
2009,05,21,13,28,16.00
2009,05,21,13,29,16.00
2009,05,21,13,30,16.00
2009,05,21,13,31,16.10
2009,05,21,13,32,16.20
2009,05,21,13,33,16.30
2009,05,21,13,34,16.40
2009,05,21,13,35,16.40
2009,05,21,13,36,16.50
2009,05,21,13,37,16.60
2009,05,21,13,38,16.80
2009,05,21,13,39,16.70
2009,05,21,13,40,16.70
2009,05,21,13,41,16.70
2009,05,21,13,42,16.60
2009,05,21,13,43,16.60
2009,05,21,13,44,16.40
2009,05,21,13,45,16.30
2009,05,21,13,46,16.20
2009,05,21,13,47,16.30
2009,05,21,13,48,16.20
2009,05,21,13,49,16.10
2009,05,21,13,50,16.00
2009,05,21,13,51,16.00
2009,05,21,13,52,16.10
2009,05,21,13,53,16.00
2009,05,21,13,54,16.00
2009,05,21,13,55,16.00
2009,05,21,13,56,16.10
2009,05,21,13,57,16.30
2009,05,21,13,58,16.50
2009,05,21,13,59,16.70
2009,05,21,14,00,16.80
2009,05,21,14,01,16.80
2009,05,21,14,02,16.90
2009,05,21,14,03,16.90
2009,05,21,14,04,16.90
2009,05,21,14,05,16.80
2009,05,21,14,06,16.80
2009,05,21,14,07,16.80
2009,05,21,14,08,16.80
2009,05,21,14,09,16.80
2009,05,21,14,10,16.90
2009,05,21,14,11,16.80
2009,05,21,14,12,16.80
2009,05,21,14,13,16.80
2009,05,21,14,14,16.70
2009,05,21,14,15,16.80
2009,05,21,14,16,16.80
2009,05,21,14,17,16.90
2009,05,21,14,18,17.00
2009,05,21,14,19,17.20
2009,05,21,14,20,17.30
2009,05,21,14,21,17.30
2009,05,21,14,22,17.30
2009,05,21,14,23,17.40
2009,05,21,14,24,17.30
2009,05,21,14,25,17.30
2009,05,21,14,26,17.30
2009,05,21,14,27,17.30
2009,05,21,14,28,17.30
2009,05,21,14,29,17.30
2009,05,21,14,30,17.20
2009,05,21,14,31,17.20
2009,05,21,14,32,17.20
2009,05,21,14,33,17.30
2009,05,21,14,34,17.30
2009,05,21,14,35,17.30
2009,05,21,14,36,17.30
2009,05,21,14,37,17.30
2009,05,21,14,38,17.30
2009,05,21,14,39,17.20
2009,05,21,14,40,17.20
2009,05,21,14,41,17.10
2009,05,21,14,42,17.00
2009,05,21,14,43,17.00
2009,05,21,14,44,17.10
2009,05,21,14,45,17.10
2009,05,21,14,46,17.10
2009,05,21,14,47,17.20
2009,05,21,14,48,17.30
2009,05,21,14,49,17.30
2009,05,21,14,50,17.30
2009,05,21,14,51,17.40
2009,05,21,14,52,17.40
2009,05,21,14,53,17.40
2009,05,21,14,54,17.40
2009,05,21,14,55,17.50
2009,05,21,14,56,17.60
2009,05,21,14,57,17.60
2009,05,21,14,58,17.60
2009,05,21,14,59,17.70
2009,05,21,15,00,17.70
2009,05,21,15,01,17.70
2009,05,21,15,02,17.80
2009,05,21,15,03,17.80
2009,05,21,15,04,17.90
2009,05,21,15,05,17.90
2009,05,21,15,06,18.00
2009,05,21,15,07,17.90
2009,05,21,15,08,18.00
2009,05,21,15,09,18.10
2009,05,21,15,10,18.10
2009,05,21,15,11,18.20
2009,05,21,15,12,18.30
2009,05,21,15,13,18.30
2009,05,21,15,14,18.30
2009,05,21,15,15,18.20
2009,05,21,15,16,18.20
2009,05,21,15,17,18.10
2009,05,21,15,18,17.90
2009,05,21,15,19,17.80
2009,05,21,15,20,17.80
2009,05,21,15,21,17.80
2009,05,21,15,22,17.70
2009,05,21,15,23,17.70
2009,05,21,15,24,17.80
2009,05,21,15,25,18.00
2009,05,21,15,26,18.00
2009,05,21,15,27,17.90
2009,05,21,15,28,17.80
2009,05,21,15,29,17.70
2009,05,21,15,30,17.60
2009,05,21,15,31,17.60
2009,05,21,15,32,17.70
2009,05,21,15,33,17.70
2009,05,21,15,34,17.70
2009,05,21,15,35,17.70
2009,05,21,15,36,17.70
2009,05,21,15,37,17.80
2009,05,21,15,38,17.70
2009,05,21,15,39,17.70
2009,05,21,15,40,17.60
2009,05,21,15,41,17.60
2009,05,21,15,42,17.70
2009,05,21,15,43,17.70
2009,05,21,15,44,17.70
2009,05,21,15,45,17.70
2009,05,21,15,46,17.80
2009,05,21,15,47,17.80
2009,05,21,15,48,17.80
2009,05,21,15,49,17.70
2009,05,21,15,50,17.80
2009,05,21,15,51,17.80
2009,05,21,15,52,17.80
2009,05,21,15,53,17.80
2009,05,21,15,54,18.00
2009,05,21,15,55,18.00
2009,05,21,15,56,17.90
2009,05,21,15,57,17.80
2009,05,21,15,58,17.80
2009,05,21,15,59,17.90
2009,05,21,16,00,17.90
2009,05,21,16,01,18.00
2009,05,21,16,02,18.10
2009,05,21,16,03,18.10
2009,05,21,16,04,18.10
2009,05,21,16,05,18.10
2009,05,21,16,06,18.10
2009,05,21,16,07,18.20
2009,05,21,16,08,18.20
2009,05,21,16,09,18.10
2009,05,21,16,10,18.00
2009,05,21,16,11,17.90
2009,05,21,16,12,17.80
2009,05,21,16,13,17.70
2009,05,21,16,14,17.70
2009,05,21,16,15,17.80
2009,05,21,16,16,17.90
2009,05,21,16,17,17.90
2009,05,21,16,18,17.90
2009,05,21,16,19,17.70
2009,05,21,16,20,17.70
2009,05,21,16,21,17.70
2009,05,21,16,22,17.60
2009,05,21,16,23,17.60
2009,05,21,16,24,17.60
2009,05,21,16,25,17.50
2009,05,21,16,26,17.40
2009,05,21,16,27,17.40
2009,05,21,16,28,17.50
2009,05,21,16,29,17.60
2009,05,21,16,30,17.50
2009,05,21,16,31,17.50
2009,05,21,16,32,17.50
2009,05,21,16,33,17.70
2009,05,21,16,34,17.80
2009,05,21,16,35,17.90
2009,05,21,16,36,17.90
2009,05,21,16,37,18.00
2009,05,21,16,38,18.10
2009,05,21,16,39,18.20
2009,05,21,16,40,18.30
2009,05,21,16,41,18.40
2009,05,21,16,42,18.50
2009,05,21,16,43,18.50
2009,05,21,16,44,18.40
2009,05,21,16,45,18.30
2009,05,21,16,46,18.30
2009,05,21,16,47,18.20
2009,05,21,16,48,18.20
2009,05,21,16,49,18.20
2009,05,21,16,50,18.10
2009,05,21,16,51,18.00
2009,05,21,16,52,18.10
2009,05,21,16,53,18.20
2009,05,21,16,54,18.20
2009,05,21,16,55,18.30
2009,05,21,16,56,18.30
2009,05,21,16,57,18.20
2009,05,21,16,58,18.00
2009,05,21,16,59,17.80
2009,05,21,17,00,17.70
2009,05,21,17,01,17.70
2009,05,21,17,02,17.70
2009,05,21,17,03,17.70
2009,05,21,17,04,17.70
2009,05,21,17,05,17.70
2009,05,21,17,06,17.70
2009,05,21,17,07,17.70
2009,05,21,17,08,17.60
2009,05,21,17,09,17.60
2009,05,21,17,10,17.60
2009,05,21,17,11,17.70
2009,05,21,17,12,17.80
2009,05,21,17,13,17.80
2009,05,21,17,14,17.90
2009,05,21,17,15,17.90
2009,05,21,17,16,17.90
2009,05,21,17,17,17.80
2009,05,21,17,18,17.80
2009,05,21,17,19,17.90
2009,05,21,17,20,17.90
2009,05,21,17,21,18.00
2009,05,21,17,22,18.10
2009,05,21,17,23,18.20
2009,05,21,17,24,18.20
2009,05,21,17,25,18.20
2009,05,21,17,26,18.20
2009,05,21,17,27,18.20
2009,05,21,17,28,18.20
2009,05,21,17,29,18.20
2009,05,21,17,30,18.30
2009,05,21,17,31,18.30
2009,05,21,17,32,18.20
2009,05,21,17,33,18.20
2009,05,21,17,34,18.10
2009,05,21,17,35,18.00
2009,05,21,17,36,17.90
2009,05,21,17,37,17.90
2009,05,21,17,38,18.00
2009,05,21,17,39,18.00
2009,05,21,17,40,17.90
2009,05,21,17,41,17.90
2009,05,21,17,42,17.80